| time (UTC) | temp F | wind direction | speed MPH | gust MPH | rain 1hr in | rain 24hr in | rain mn in | humidity % | barometer mb |
| 20260506194051 | 47 | 0 | 0.0 | 0.0 | 0.00 | 0.62 | 0.50 | 91 | 1013.0 |
| 20260506193050 | 47 | 0 | 0.0 | 0.0 | 0.00 | 0.64 | 0.50 | 91 | 1012.9 |
| 20260506192046 | 47 | 0 | 0.0 | 0.0 | 0.00 | 0.65 | 0.50 | 91 | 1012.8 |
| 20260506185050 | 49 | 0 | 0.0 | 0.0 | 0.00 | 0.67 | 0.50 | 86 | 1012.5 |
| 20260506183051 | 50 | 0 | 0.0 | 0.0 | 0.00 | 0.69 | 0.50 | 83 | 1012.3 |
| 20260506180047 | 51 | 0 | 0.0 | 0.0 | 0.00 | 0.71 | 0.50 | 82 | 1011.9 |
| 20260506175048 | 51 | 0 | 0.0 | 0.0 | 0.00 | 0.72 | 0.50 | 82 | 1011.7 |
| 20260506173044 | 52 | 0 | 0.0 | 0.0 | 0.00 | 0.72 | 0.50 | 81 | 1011.5 |
| 20260506172045 | 52 | 0 | 0.0 | 0.0 | 0.00 | 0.73 | 0.50 | 79 | 1011.4 |
| 20260506171046 | 53 | 0 | 0.0 | 0.0 | 0.00 | 0.73 | 0.50 | 78 | 1011.3 |
| 20260506170043 | 53 | 0 | 0.0 | 0.0 | 0.00 | 0.73 | 0.50 | 78 | 1011.3 |
| 20260506165043 | 53 | 0 | 0.0 | 0.0 | 0.00 | 0.74 | 0.50 | 78 | 1011.2 |
| 20260506163046 | 54 | 0 | 0.0 | 0.0 | 0.00 | 0.74 | 0.50 | 79 | 1011.0 |
| 20260506161045 | 53 | 0 | 0.0 | 0.0 | 0.00 | 0.74 | 0.50 | 83 | 1011.1 |
| 20260506160043 | 53 | 0 | 0.0 | 0.0 | 0.00 | 0.74 | 0.50 | 83 | 1011.1 |
| 20260506155047 | 53 | 0 | 0.0 | 0.0 | 0.00 | 0.74 | 0.50 | 84 | 1011.0 |
| 20260506154050 | 53 | 0 | 0.0 | 0.0 | 0.00 | 0.74 | 0.50 | 84 | 1010.9 |
| 20260506152049 | 54 | 0 | 0.0 | 0.0 | 0.00 | 0.74 | 0.50 | 82 | 1010.8 |
| 20260506151050 | 53 | 0 | 0.0 | 0.0 | 0.00 | 0.74 | 0.50 | 86 | 1010.8 |
| 20260506150048 | 53 | 0 | 0.0 | 0.0 | 0.00 | 0.74 | 0.50 | 87 | 1010.8 |
| 20260506145046 | 53 | 0 | 0.0 | 0.0 | 0.00 | 0.74 | 0.50 | 87 | 1010.8 |
| 20260506144044 | 53 | 0 | 0.0 | 0.0 | 0.00 | 0.74 | 0.50 | 83 | 1010.8 |
| 20260506141045 | 53 | 0 | 0.0 | 0.0 | 0.00 | 0.74 | 0.50 | 84 | 1010.8 |
| 20260506140054 | 53 | 0 | 0.0 | 0.0 | 0.00 | 0.74 | 0.50 | 82 | 1010.8 |
| 20260506135048 | 54 | 0 | 0.0 | 0.0 | 0.00 | 0.74 | 0.50 | 82 | 1010.7 |
| 20260506134048 | 53 | 0 | 0.0 | 0.0 | 0.00 | 0.74 | 0.50 | 84 | 1010.8 |
| 20260506132045 | 52 | 0 | 0.0 | 0.0 | 0.00 | 0.74 | 0.50 | 87 | 1010.9 |
| 20260506130043 | 51 | 0 | 0.0 | 0.0 | 0.00 | 0.74 | 0.50 | 88 | 1010.8 |
| 20260506125045 | 51 | 0 | 0.0 | 0.0 | 0.00 | 0.74 | 0.50 | 89 | 1010.8 |
| 20260506124045 | 51 | 0 | 0.0 | 0.0 | 0.00 | 0.74 | 0.50 | 88 | 1010.7 |
| 20260506123045 | 51 | 0 | 0.0 | 0.0 | 0.00 | 0.74 | 0.50 | 87 | 1010.6 |
| 20260506122045 | 52 | 0 | 0.0 | 0.0 | 0.00 | 0.74 | 0.50 | 87 | 1010.6 |
| 20260506121046 | 52 | 0 | 0.0 | 0.0 | 0.01 | 0.74 | 0.50 | 89 | 1010.6 |
| 20260506120046 | 51 | 0 | 0.0 | 0.0 | 0.01 | 0.74 | 0.50 | 90 | 1010.5 |
| 20260506114044 | 51 | 0 | 0.0 | 0.0 | 0.01 | 0.74 | 0.50 | 94 | 1010.5 |
| 20260506112048 | 50 | 0 | 0.0 | 0.0 | 0.01 | 0.74 | 0.50 | 96 | 1010.5 |
| 20260506111048 | 50 | 0 | 0.0 | 0.0 | 0.01 | 0.74 | 0.50 | 97 | 1010.6 |
| 20260506110047 | 50 | 0 | 0.0 | 0.0 | 0.00 | 0.73 | 0.50 | 98 | 1010.6 |
| 20260506105043 | 49 | 0 | 0.0 | 0.0 | 0.01 | 0.73 | 0.50 | 98 | 1010.5 |
| 20260506104044 | 49 | 0 | 0.0 | 0.0 | 0.01 | 0.73 | 0.50 | 98 | 1010.5 |
| 20260506103045 | 49 | 0 | 0.0 | 0.0 | 0.01 | 0.73 | 0.50 | 99 | 1010.5 |
| 20260506101044 | 49 | 0 | 0.0 | 0.0 | 0.01 | 0.73 | 0.50 | 99 | 1010.3 |
| 20260506100043 | 48 | 0 | 0.0 | 0.0 | 0.02 | 0.73 | 0.50 | 10 | 1010.2 |
| 20260506095044 | 48 | 0 | 0.0 | 0.0 | 0.02 | 0.73 | 0.50 | 10 | 1010.2 |
| 20260506093043 | 48 | 0 | 0.0 | 0.0 | 0.02 | 0.72 | 0.49 | 10 | 1010.0 |
| 20260506091044 | 47 | 0 | 0.0 | 0.0 | 0.03 | 0.72 | 0.49 | 10 | 1010.0 |
| 20260506090047 | 47 | 0 | 0.0 | 0.0 | 0.04 | 0.72 | 0.49 | 10 | 1009.9 |
| 20260506085047 | 47 | 0 | 0.0 | 0.0 | 0.03 | 0.72 | 0.48 | 10 | 1009.8 |
| 20260506084042 | 47 | 0 | 0.0 | 0.0 | 0.03 | 0.72 | 0.48 | 10 | 1009.7 |
| 20260506082044 | 47 | 0 | 0.0 | 0.0 | 0.02 | 0.71 | 0.46 | 10 | 1009.5 |
| 20260506081045 | 47 | 0 | 0.0 | 0.0 | 0.02 | 0.71 | 0.46 | 10 | 1009.5 |
| 20260506073042 | 47 | 0 | 0.0 | 0.0 | 0.03 | 0.69 | 0.45 | 10 | 1009.2 |
| 20260506072042 | 47 | 0 | 0.0 | 0.0 | 0.04 | 0.69 | 0.45 | 10 | 1009.1 |
| 20260506071049 | 47 | 0 | 0.0 | 0.0 | 0.03 | 0.69 | 0.44 | 10 | 1009.1 |
| 20260506062046 | 46 | 0 | 0.0 | 0.0 | 0.02 | 0.66 | 0.42 | 10 | 1008.9 |
| 20260506051042 | 46 | 0 | 0.0 | 0.0 | 0.05 | 0.65 | 0.39 | 10 | 1008.9 |
| 20260506045045 | 46 | 0 | 0.0 | 0.0 | 0.04 | 0.63 | 0.38 | 10 | 1008.9 |
| 20260506041045 | 46 | 0 | 0.0 | 0.0 | 0.05 | 0.60 | 0.35 | 10 | 1008.7 |
| 20260506035047 | 46 | 0 | 0.0 | 0.0 | 0.05 | 0.59 | 0.34 | 10 | 1008.8 |
| 20260506034044 | 46 | 0 | 0.0 | 0.0 | 0.06 | 0.59 | 0.34 | 10 | 1008.8 |
| 20260506033043 | 46 | 0 | 0.0 | 0.0 | 0.06 | 0.58 | 0.33 | 10 | 1008.8 |
| 20260506032044 | 46 | 0 | 0.0 | 0.0 | 0.06 | 0.58 | 0.33 | 10 | 1008.9 |
| 20260506031042 | 46 | 0 | 0.0 | 0.0 | 0.06 | 0.57 | 0.32 | 10 | 1008.8 |
| 20260506024044 | 47 | 0 | 0.0 | 0.0 | 0.06 | 0.54 | 0.29 | 10 | 1009.0 |
| 20260506023048 | 47 | 0 | 0.0 | 0.0 | 0.06 | 0.54 | 0.28 | 10 | 1009.0 |
| 20260506022045 | 47 | 0 | 0.0 | 0.0 | 0.06 | 0.53 | 0.28 | 10 | 1009.1 |
| 20260506021043 | 47 | 0 | 0.0 | 0.0 | 0.06 | 0.52 | 0.27 | 10 | 1009.1 |
| 20260506020043 | 47 | 0 | 0.0 | 0.0 | 0.07 | 0.51 | 0.26 | 10 | 1009.2 |
| 20260506014044 | 47 | 0 | 0.0 | 0.0 | 0.07 | 0.50 | 0.24 | 10 | 1009.2 |
| 20260506013043 | 47 | 0 | 0.0 | 0.0 | 0.06 | 0.48 | 0.23 | 10 | 1009.2 |
| 20260506012045 | 47 | 0 | 0.0 | 0.0 | 0.06 | 0.47 | 0.22 | 10 | 1009.2 |
| 20260506011044 | 48 | 0 | 0.0 | 0.0 | 0.06 | 0.46 | 0.21 | 10 | 1009.2 |
| 20260506010043 | 48 | 0 | 0.0 | 0.0 | 0.07 | 0.46 | 0.20 | 10 | 1009.3 |
| 20260506005044 | 48 | 0 | 0.0 | 0.0 | 0.07 | 0.44 | 0.19 | 10 | 1009.3 |
| 20260506004043 | 48 | 0 | 0.0 | 0.0 | 0.07 | 0.43 | 0.18 | 10 | 1009.4 |
| 20260506003042 | 48 | 0 | 0.0 | 0.0 | 0.08 | 0.43 | 0.17 | 10 | 1009.5 |
| 20260506000045 | 48 | 0 | 0.0 | 0.0 | 0.09 | 0.40 | 0.15 | 10 | 1009.7 |
| 20260505235046 | 48 | 0 | 0.0 | 0.0 | 0.09 | 0.39 | 0.13 | 10 | 1009.8 |
| 20260505234043 | 48 | 0 | 0.0 | 0.0 | 0.08 | 0.37 | 0.12 | 10 | 1009.8 |
| 20260505232047 | 48 | 0 | 0.0 | 0.0 | 0.08 | 0.35 | 0.09 | 10 | 1009.8 |
| 20260505231046 | 48 | 0 | 0.0 | 0.0 | 0.07 | 0.33 | 0.08 | 10 | 1009.9 |
| 20260505223049 | 48 | 0 | 0.0 | 0.0 | 0.06 | 0.29 | 0.04 | 10 | 1010.1 |
| 20260505222046 | 49 | 0 | 0.0 | 0.0 | 0.06 | 0.28 | 0.02 | 10 | 1010.1 |
| 20260505221051 | 49 | 0 | 0.0 | 0.0 | 0.06 | 0.27 | 0.02 | 10 | 1010.1 |
| 20260505220045 | 49 | 0 | 0.0 | 0.0 | 0.06 | 0.26 | 0.01 | 10 | 1010.2 |
| 20260505215052 | 49 | 0 | 0.0 | 0.0 | 0.07 | 0.25 | 0.25 | 10 | 1010.2 |
| 20260505213050 | 49 | 0 | 0.0 | 0.0 | 0.06 | 0.24 | 0.24 | 10 | 1010.3 |
| 20260505212051 | 49 | 0 | 0.0 | 0.0 | 0.06 | 0.23 | 0.23 | 10 | 1010.4 |
| 20260505211048 | 49 | 0 | 0.0 | 0.0 | 0.06 | 0.22 | 0.22 | 10 | 1010.4 |
| 20260505205049 | 49 | 0 | 0.0 | 0.0 | 0.06 | 0.20 | 0.20 | 10 | 1010.4 |
| 20260505204047 | 49 | 0 | 0.0 | 0.0 | 0.05 | 0.19 | 0.18 | 10 | 1010.5 |
| 20260505202050 | 49 | 0 | 0.0 | 0.0 | 0.06 | 0.18 | 0.17 | 10 | 1010.4 |
| 20260505200050 | 49 | 0 | 0.0 | 0.0 | 0.06 | 0.17 | 0.16 | 10 | 1010.3 |